Home > Weather > Ås > Past weeks

Flag for Norway Past Weather in Ås, Norway — Yesterday and Last 2 Weeks

Now
54 °F

Partly cloudy.


Feels Like: 50 °F
Forecast: 52 / 60 °F
Wind: 10 mph from Southeast

Location: Statfjord B

Current Time: Jun 30, 2016 at 5:24:43 AM

Latest Report: Jun 30, 2016 at 4:50 AM


Visibility: N/A

Pressure: 29.47 "Hg

Humidity: 94%

Dew Point: 52 °F

Location of ÅsLocation

Past Weather in Ås — Graph

°F

Ås Temperature Yesterday

Maximum temperature yesterday: 57 °F (at 1:50 PM)
Minimum temperature yesterday: 52 °F (at 8:20 PM)
Average temperature yesterday: 55 °F

High & Low Weather Summary for the Past Weeks

 TemperatureHumidityPressure
High59 °F (Jun 23, 4:20 PM)100% (Jun 20, 11:50 AM)30.09 "Hg (Jun 20, 11:50 AM)
Low46 °F (Jun 18, 12:20 PM)51% (Jun 19, 7:20 PM)29.42 "Hg (Jun 30, 12:50 AM)
Average52 °F87%29.84 "Hg
* Reported Jun 15 3:20 AM — Jun 30 3:50 AM, Ås, Weather by CustomWeather, © 2016

Note: Actual official high and low records may vary slightly from our data, if they occured in-between our weather recording intervals... More about our weather records

Advertising

Ås Weather History for the Previous 24 Hours

Scroll right to see more
 ConditionsComfort  
Time TempWeatherWind HumidityBarometerVisibility
3:50 AM
Thu, Jun 30
54 °FLight rain. Passing clouds.13 mph94%29.47 "HgN/A
3:20 AM54 °FPassing clouds.17 mph94%29.50 "HgN/A
2:50 AM54 °FPartly cloudy.18 mph94%29.50 "HgN/A
2:20 AM54 °FPartly cloudy.23 mph94%29.47 "HgN/A
1:50 AM54 °FPassing clouds.29 mph94%29.47 "HgN/A
1:20 AM54 °FPassing clouds.35 mph100%29.45 "HgN/A
12:50 AM55 °FPassing clouds.35 mph94%29.42 "HgN/A
12:20 AM57 °FPassing clouds.32 mph94%29.45 "Hg6 mi
11:50 PM
Wed, Jun 29
55 °FPassing clouds.37 mph94%29.45 "Hg5 mi
11:20 PM54 °FLight rain. Fog.37 mph100%29.45 "Hg2 mi
10:50 PM54 °FLight rain. Partly sunny.36 mph94%29.50 "Hg4 mi
10:20 PM52 °FRain. Partly sunny.29 mph100%29.53 "Hg2 mi
9:50 PM54 °FLight rain. Partly sunny.29 mph94%29.56 "Hg4 mi
9:20 PM52 °FLight rain. Partly sunny.28 mph100%29.56 "Hg4 mi
8:50 PM52 °FLight rain. Partly sunny.23 mph94%29.59 "HgN/A
8:20 PM52 °FLight rain. Overcast.24 mph88%29.59 "HgN/A
7:50 PM54 °FLight rain. Overcast.24 mph88%29.62 "HgN/A
7:20 PM54 °FLight rain. Overcast.23 mph82%29.62 "HgN/A
6:50 PM54 °FLight rain. Partly sunny.25 mph82%29.62 "HgN/A
6:20 PM55 °FScattered clouds.23 mph77%29.62 "HgN/A
5:50 PM55 °FCool.24 mph82%29.65 "HgN/A
5:20 PM55 °FPassing clouds.22 mph88%29.65 "HgN/A
4:50 PM57 °FPartly sunny.22 mph77%29.68 "HgN/A
4:20 PM55 °FPartly sunny.18 mph82%29.68 "HgN/A
3:50 PM57 °FPassing clouds.21 mph72%29.68 "HgN/A
3:20 PM57 °FCool.18 mph72%29.68 "HgN/A
2:50 PM57 °FScattered clouds.20 mph72%29.68 "HgN/A
2:20 PM57 °FPartly sunny.26 mph72%29.68 "HgN/A
1:50 PM57 °FScattered clouds.22 mph82%29.71 "HgN/A
1:20 PM55 °FPartly sunny.21 mph88%29.71 "HgN/A
12:50 PM55 °FPartly sunny.22 mph88%29.71 "HgN/A
12:20 PM55 °FCool.22 mph88%29.71 "HgN/A
11:50 AM55 °FPartly sunny.23 mph88%29.71 "HgN/A
11:20 AM55 °FPartly sunny.23 mph88%29.71 "HgN/A
10:50 AM55 °FPartly sunny.24 mph88%29.71 "HgN/A
10:20 AM55 °FPartly sunny.24 mph88%29.71 "HgN/A
9:50 AM55 °FScattered clouds.24 mph88%29.71 "HgN/A
9:20 AM55 °FPassing clouds.24 mph88%29.71 "HgN/A
8:50 AM55 °FPartly sunny.22 mph88%29.74 "HgN/A
8:20 AM55 °FScattered clouds.23 mph88%29.74 "HgN/A
7:50 AM55 °FPassing clouds.24 mph88%29.74 "HgN/A
7:20 AM55 °FCool.23 mph88%29.74 "HgN/A
6:50 AM55 °FCool.24 mph88%29.74 "HgN/A
6:20 AM54 °FPassing clouds.22 mph94%29.74 "HgN/A
5:50 AM54 °FPartly sunny.20 mph94%29.74 "HgN/A
5:20 AM55 °FPartly sunny.21 mph88%29.77 "HgN/A
Weather by CustomWeather, © 2016

See weather overviewHow to use our weather pages